PRISMA

operational
NORAD ID: 44072 Int'l Des: 2019-015 Owner: ASI Country: I
LEOCIRCULARRETROGRADESSO

Über PRISMA

Beschreibung wird geladen...

Live-Position

3D-Globus wird geladen...

Nächste Überflüge

Höhenverlauf

Altitude vs Time

uPlot chart will show altitude changes over time

Zweizeiliger Elementsatz

1 44072U 19015A 26061.65025612 .00001645 00000-0 20548-3 0 9993
2 44072 97.8736 137.9749 0001269 96.6592 263.4767 14.83697448376256
Epoch: 2. März 2026 • Age: 26 hours

Aktueller Status

Höhe 637.9 km
Geschwindigkeit 7.54 km/s
Subsatellitenpunkt -50.35°S, 112.66°E
Startdatum 22. März 2019
Alter 6.9 years
Typ other

Technische Details

Klassifizierung Payload
Masse 879.00 kg
Trockenmasse 850.00 kg
Gesamtmasse 879.00 kg
Länge 3.40 m
Durchmesser 1.50 m
Spannweite 5.00 m
Form Box+panel
Hersteller OHBI
Bus-Typ MITA
Phasenstatus In Orbit
Besitzer/Staat ASI/I

Große Konstellationen

Loading constellations...